Barter Island, AK

4:56 PM AKDT on October 23, 2017 (GMT -0800)
Barter Island LRRS

Weather History for PABA - April, 2013

Change the Weather History Date:

Monday, April 8, 2013

  Actual Average Record
Temperature  
Mean Temperature -12 °F -  
Max Temperature -11 °F 7 °F 26 °F (1999)
Min Temperature -18 °F -4 °F -18 °F (2013)
Degree Days  
Heating Degree Days 77    
Moisture  
Dew Point -17 °F    
Average Humidity 79    
Maximum Humidity 84    
Minimum Humidity 75    
Precipitation  
Precipitation 0.00 in - - ()
Sea Level Pressure  
Sea Level Pressure 30.06 in    
Wind  
Wind Speed 16 mph (West)    
Max Wind Speed 23 mph    
Max Gust Speed -    
Visibility 6 miles    
Events Snow    
Averages and records for this station are not official NWS values.
T = Trace of Precipitation, MM = Missing Value Source: NWS Daily Summary

Daily Weather History Graph

Daily Weather History Graph

Search for Another Location

Airport or City:

Trip Planner

Search our weather history database for the weather conditions in past years. The results will help you decide how hot, cold, wet, or windy it might be!

Date:

Astronomy

Apr. 08, 2013 Rise Set
Actual Time 6:01 AM AKDT 9:13 PM AKDT
Civil Twilight 4:48 AM AKDT 10:28 PM AKDT
Nautical Twilight 2:28 AM AKDT 1:05 AM AKDT
Astronomical Twilight Sun does not rise Sun does not rise
Moon 5:42 AM AKDT (4/8) 7:30 PM AKDT (4/8)
Length of Visible Light 17h 39m
Length of Day
15h 12m
Waning Crescent, 3% of the Moon is Illuminated
Apr 8
Waning Crescent
Apr 10
New
Apr 18
First Quarter
Apr 25
Full
May 2
Last Quarter

Hourly Weather History & Observations

Time (AKDT) Temp. Windchill Dew Point Humidity Pressure Visibility Wind Dir Wind Speed Gust Speed Precip Events Conditions
12:01 AM -18.0 °F -42.5 °F -23.1 °F 78% 30.07 in 10.0 mi West 15.0 mph - N/A   Unknown
1:01 AM -17.0 °F -41.9 °F -22.0 °F 78% 30.06 in 10.0 mi West 16.1 mph - N/A   Unknown
1:59 AM -16.6 °F -40.6 °F -20.2 °F 84% 30.06 in 1.8 mi West 15.0 mph - 0.00 in Snow Light Snow
2:01 AM -16.1 °F -40.7 °F -20.9 °F 79% 30.06 in 1.5 mi West 16.1 mph - 0.00 in Snow Light Snow
2:15 AM -16.6 °F -43.5 °F -20.2 °F 84% 30.06 in 1.0 mi West 19.6 mph - 0.00 in Snow Light Snow
2:38 AM -16.6 °F -40.6 °F -20.2 °F 84% 30.06 in 1.5 mi West 15.0 mph - 0.00 in Snow Light Snow
3:01 AM -16.1 °F -42.1 °F -20.9 °F 79% 30.06 in 1.5 mi West 18.4 mph - 0.00 in Snow Light Snow
3:48 AM -16.6 °F -40.6 °F -20.2 °F 84% 30.05 in 2.5 mi West 15.0 mph - 0.00 in Snow Light Snow
4:01 AM -16.1 °F -41.4 °F -20.9 °F 79% 30.05 in 3.0 mi West 17.3 mph - 0.00 in Snow Light Snow
4:19 AM -16.6 °F -42.1 °F -20.2 °F 84% 30.06 in 2.5 mi West 17.3 mph - 0.00 in Snow Light Snow
5:01 AM -16.1 °F -41.4 °F -20.9 °F 79% 30.04 in 2.0 mi West 17.3 mph - 0.00 in Snow Light Snow
5:45 AM -16.6 °F -42.1 °F -22.0 °F 76% 30.04 in 3.0 mi West 17.3 mph - 0.00 in Snow Light Snow
6:01 AM -17.0 °F -41.9 °F -22.0 °F 78% 30.04 in 7.0 mi West 16.1 mph - 0.00 in Snow Light Snow
8:01 AM -16.1 °F -40.7 °F -20.9 °F 79% 30.05 in 10.0 mi West 16.1 mph - N/A   Unknown
9:01 AM -16.1 °F -36.2 °F -20.9 °F 79% 30.04 in 10.0 mi WSW 10.4 mph - N/A   Unknown
10:01 AM -13.0 °F -37.5 °F -18.9 °F 75% 30.06 in 9.0 mi West 17.3 mph - N/A   Unknown
11:01 AM -11.9 °F -37.4 °F -17.0 °F 78% 30.07 in 4.0 mi West 19.6 mph - N/A   Haze
11:18 AM -11.2 °F -38.2 °F -16.6 °F 77% 30.07 in 2.0 mi West 23.0 mph - 0.00 in Snow Light Snow
11:30 AM -11.2 °F -37.0 °F -16.6 °F 77% 30.07 in 4.0 mi West 20.7 mph - 0.00 in   Haze
12:01 PM -11.0 °F -35.6 °F -16.1 °F 78% 30.06 in 4.0 mi West 18.4 mph - 0.00 in   Haze
1:01 PM -9.0 °F -34.2 °F -15.0 °F 75% 30.07 in 7.0 mi West 20.7 mph - N/A   Unknown
2:01 PM -7.1 °F -31.0 °F -11.9 °F 79% 30.07 in 6.0 mi West 19.6 mph - N/A   Haze
3:01 PM -6.0 °F -29.6 °F -11.0 °F 79% 30.07 in 9.0 mi West 19.6 mph - N/A   Unknown
4:01 PM -6.0 °F -27.7 °F -11.0 °F 79% 30.06 in 10.0 mi West 16.1 mph - N/A   Unknown
5:01 PM -6.0 °F -27.0 °F -11.9 °F 75% 30.05 in 10.0 mi West 15.0 mph - N/A   Unknown
6:01 PM -7.1 °F -28.4 °F -11.9 °F 79% 30.06 in 10.0 mi West 15.0 mph - N/A   Unknown
7:01 PM -7.1 °F -28.4 °F -11.9 °F 79% 30.06 in 10.0 mi West 15.0 mph - N/A   Unknown
8:01 PM -8.0 °F -28.8 °F -13.0 °F 79% 30.04 in 10.0 mi West 13.8 mph - N/A   Unknown
9:01 PM -9.0 °F -26.4 °F -13.0 °F 83% 30.04 in 10.0 mi WNW 9.2 mph - N/A   Unknown
10:01 PM -9.9 °F -26.3 °F -15.0 °F 78% 30.04 in 6.0 mi West 8.1 mph - 0.00 in Snow Light Snow
11:01 PM -11.0 °F -28.8 °F -16.1 °F 78% 30.03 in 9.0 mi West 9.2 mph - 0.00 in Snow Light Snow